When you browse on this site, cookies collect data to enhance your experience and personalize the content and advertising you see.
Visit our Privacy Policy to learn more. By continuing to use the site, you agree to this use of cookies and data.
  • In France
  • List of Countries
  • For 7 days
  • Water Temperature
  • Weather Map
  • Weather Widgets
  • user-avatar
    Login

    Hourly Weather Vina del Mar

    Today, 18 September, Wednesday

    Time Temperature Precipitation Wind Pressure Humidity
    00:00 +7°C° 0 mm 1 mps 747 mmHg 91%
    01:00 +7°C° 0 mm 1 mps 746 mmHg 91%
    02:00 +6°C° 0 mm 2 mps 746 mmHg 91%
    03:00 +6°C° 0 mm 2 mps 746 mmHg 91%
    04:00 +6°C° 0 mm 2 mps 746 mmHg 91%
    05:00 +7°C° 0 mm 2 mps 745 mmHg 87%
    06:00 +9°C° 0 mm 2 mps 745 mmHg 83%
    07:00 +10°C° 0 mm 2 mps 745 mmHg 79%
    08:00 +13°C° 0 mm 3 mps 745 mmHg 71%
    09:00 +15°C° 0 mm 4 mps 744 mmHg 62%
    10:00 +19°C° 0 mm 4 mps 744 mmHg 54%
    11:00 +20°C° 0 mm 5 mps 744 mmHg 53%
    12:00 +20°C° 0 mm 6 mps 743 mmHg 52%
    13:00 +21°C° 0 mm 6 mps 743 mmHg 50%
    14:00 +20°C° 0 mm 6 mps 743 mmHg 54%
    15:00 +18°C° 0 mm 7 mps 743 mmHg 57%
    16:00 +17°C° 0 mm 7 mps 742 mmHg 60%
    17:00 +14°C° 0 mm 6 mps 742 mmHg 70%
    18:00 +11°C° 0 mm 6 mps 742 mmHg 80%
    19:00 +8°C° 0 mm 5 mps 742 mmHg 90%
    20:00 +8°C° 0 mm 5 mps 742 mmHg 91%
    21:00 +7°C° 0 mm 5 mps 743 mmHg 91%
    22:00 +7°C° 0 mm 5 mps 743 mmHg 91%
    23:00 +6°C° 0 mm 4 mps 743 mmHg 92%

    Tomorrow, 19 September, Thursday

    Time Temperature Precipitation Wind Pressure Humidity
    00:00 +7°C° 0 mm 3 mps 743 mmHg 92%
    01:00 +5°C° 0 mm 3 mps 743 mmHg 92%
    02:00 +6°C° 0 mm 2 mps 743 mmHg 93%
    03:00 +6°C° 0 mm 2 mps 743 mmHg 94%
    04:00 +5°C° 0 mm 2 mps 744 mmHg 94%
    05:00 +6°C° 0 mm 2 mps 744 mmHg 92%
    06:00 +8°C° 0 mm 2 mps 744 mmHg 89%
    07:00 +9°C° 0 mm 2 mps 744 mmHg 86%
    08:00 +10°C° 0 mm 2 mps 745 mmHg 81%
    09:00 +12°C° 0 mm 3 mps 745 mmHg 75%
    10:00 +13°C° 0 mm 3 mps 745 mmHg 70%
    11:00 +14°C° 0 mm 3 mps 745 mmHg 65%
    12:00 +15°C° 0 mm 4 mps 745 mmHg 61%
    13:00 +16°C° 0 mm 5 mps 745 mmHg 56%
    14:00 +15°C° 0 mm 5 mps 745 mmHg 57%
    15:00 +15°C° 0 mm 4 mps 745 mmHg 57%
    16:00 +14°C° 0 mm 4 mps 745 mmHg 58%
    17:00 +11°C° 0 mm 4 mps 746 mmHg 67%
    18:00 +8°C° 0 mm 4 mps 747 mmHg 77%
    19:00 +5°C° 0 mm 4 mps 747 mmHg 86%
    20:00 +5°C° 0 mm 3 mps 747 mmHg 87%
    21:00 +5°C° 0 mm 3 mps 748 mmHg 87%
    22:00 +4°C° 0 mm 3 mps 748 mmHg 88%
    23:00 +4°C° 0 mm 3 mps 748 mmHg 87%

    Day after tomorrow, 20 September, Friday

    Time Temperature Precipitation Wind Pressure Humidity
    00:00 +4°C° 0 mm 3 mps 748 mmHg 87%
    01:00 +5°C° 0 mm 2 mps 748 mmHg 86%
    02:00 +3°C° 0 mm 3 mps 748 mmHg 86%
    03:00 +3°C° 0 mm 3 mps 748 mmHg 86%
    04:00 +3°C° 0 mm 3 mps 748 mmHg 86%
    05:00 +5°C° 0 mm 3 mps 748 mmHg 80%
    06:00 +8°C° 0 mm 3 mps 748 mmHg 75%
    07:00 +9°C° 0 mm 3 mps 748 mmHg 69%
    08:00 +12°C° 0 mm 4 mps 749 mmHg 62%
    09:00 +15°C° 0 mm 4 mps 749 mmHg 54%
    10:00 +17°C° 0 mm 5 mps 749 mmHg 47%
    11:00 +19°C° 0 mm 6 mps 748 mmHg 45%
    12:00 +20°C° 0 mm 6 mps 748 mmHg 43%
    13:00 +20°C° 0 mm 7 mps 748 mmHg 41%
    14:00 +20°C° 0 mm 7 mps 748 mmHg 43%
    15:00 +18°C° 0 mm 7 mps 748 mmHg 45%
    16:00 +17°C° 0 mm 7 mps 747 mmHg 48%
    17:00 +14°C° 0 mm 7 mps 747 mmHg 57%
    18:00 +11°C° 0 mm 6 mps 747 mmHg 67%
    19:00 +9°C° 0 mm 5 mps 747 mmHg 76%
    20:00 +8°C° 0 mm 5 mps 747 mmHg 76%
    21:00 +8°C° 0 mm 4 mps 747 mmHg 75%
    22:00 +9°C° 0 mm 3 mps 747 mmHg 75%
    23:00 +9°C° 0 mm 3 mps 747 mmHg 75%

    21 September, Saturday

    Time Temperature Precipitation Wind Pressure Humidity
    00:00 +8°C° 0 mm 3 mps 746 mmHg 74%
    01:00 +8°C° 0 mm 3 mps 746 mmHg 74%
    02:00 +8°C° 0 mm 3 mps 746 mmHg 75%
    03:00 +8°C° 0 mm 3 mps 746 mmHg 76%
    04:00 +6°C° 0 mm 4 mps 746 mmHg 77%
    05:00 +9°C° 0 mm 3 mps 746 mmHg 71%
    06:00 +11°C° 0 mm 3 mps 746 mmHg 64%
    07:00 +12°C° 0 mm 3 mps 746 mmHg 58%
    08:00 +15°C° 0 mm 4 mps 746 mmHg 51%
    09:00 +19°C° 0 mm 4 mps 746 mmHg 45%
    10:00 +21°C° 0 mm 4 mps 746 mmHg 38%
    11:00 +22°C° 0 mm 5 mps 746 mmHg 39%
    12:00 +22°C° 0 mm 5 mps 745 mmHg 39%
    13:00 +23°C° 0 mm 5 mps 745 mmHg 40%
    14:00 +22°C° 0 mm 5 mps 745 mmHg 42%
    15:00 +21°C° 0 mm 4 mps 745 mmHg 44%
    16:00 +20°C° 0 mm 4 mps 745 mmHg 47%
    17:00 +17°C° 0 mm 3 mps 745 mmHg 59%
    18:00 +13°C° 0 mm 3 mps 745 mmHg 71%
    19:00 +9°C° 0 mm 2 mps 745 mmHg 82%
    20:00 +9°C° 0 mm 2 mps 745 mmHg 83%
    21:00 +9°C° 0 mm 1 mps 745 mmHg 84%
    22:00 +9°C° 0 mm 1 mps 745 mmHg 85%
    23:00 +9°C° 0 mm 1 mps 744 mmHg 85%

    22 September, Sunday

    Time Temperature Precipitation Wind Pressure Humidity
    00:00 +8°C° 0 mm 1 mps 744 mmHg 86%
    01:00 +8°C° 0 mm 1 mps 744 mmHg 86%
    02:00 +7°C° 0 mm 0 mps 744 mmHg 87%
    03:00 +6°C° 0 mm 0 mps 744 mmHg 88%
    04:00 +6°C° 0 mm 0 mps 743 mmHg 89%
    05:00 +8°C° 0 mm 0 mps 744 mmHg 84%
    06:00 +10°C° 0 mm 0 mps 744 mmHg 79%
    07:00 +11°C° 0 mm 0 mps 745 mmHg 74%
    08:00 +15°C° 0 mm 1 mps 745 mmHg 66%
    09:00 +17°C° 0 mm 2 mps 746 mmHg 59%
    10:00 +19°C° 0 mm 2 mps 746 mmHg 51%
    11:00 +19°C° 0 mm 3 mps 746 mmHg 50%
    12:00 +19°C° 0 mm 3 mps 746 mmHg 49%
    13:00 +19°C° 0 mm 3 mps 746 mmHg 47%
    14:00 +18°C° 0 mm 3 mps 747 mmHg 51%
    15:00 +17°C° 0 mm 3 mps 747 mmHg 54%
    16:00 +16°C° 0 mm 3 mps 747 mmHg 57%
    17:00 +12°C° 0 mm 3 mps 747 mmHg 68%
    18:00 +9°C° 0 mm 2 mps 747 mmHg 79%
    19:00 +6°C° 0 mm 2 mps 748 mmHg 91%
    20:00 +6°C° 0 mm 2 mps 748 mmHg 89%
    21:00 +7°C° 0 mm 2 mps 748 mmHg 88%
    22:00 +7°C° 0 mm 2 mps 748 mmHg 86%
    23:00 +7°C° 0 mm 2 mps 748 mmHg 86%

    23 September, Monday

    Time Temperature Precipitation Wind Pressure Humidity
    00:00 +7°C° 0 mm 2 mps 747 mmHg 85%
    01:00 +7°C° 0 mm 2 mps 747 mmHg 85%
    02:00 +7°C° 0 mm 2 mps 747 mmHg 83%
    03:00 +7°C° 0 mm 2 mps 747 mmHg 82%
    04:00 +8°C° 0 mm 2 mps 746 mmHg 80%
    05:00 +10°C° 0 mm 2 mps 746 mmHg 74%
    06:00 +13°C° 0 mm 2 mps 746 mmHg 67%
    07:00 +15°C° 0 mm 2 mps 746 mmHg 60%
    08:00 +17°C° 0 mm 2 mps 746 mmHg 55%
    09:00 +20°C° 0 mm 3 mps 747 mmHg 49%
    10:00 +22°C° 0 mm 3 mps 747 mmHg 44%
    11:00 +24°C° 0 mm 3 mps 746 mmHg 44%
    12:00 +24°C° 0 mm 3 mps 746 mmHg 45%
    13:00 +24°C° 0 mm 3 mps 746 mmHg 45%
    14:00 +22°C° 0 mm 3 mps 745 mmHg 50%
    15:00 +21°C° 0 mm 3 mps 745 mmHg 54%
    16:00 +20°C° 0 mm 2 mps 745 mmHg 59%
    17:00 +17°C° 0 mm 2 mps 745 mmHg 69%
    18:00 +14°C° 0 mm 1 mps 745 mmHg 79%
    19:00 +11°C° 0 mm 1 mps 745 mmHg 89%
    20:00 +11°C° 0 mm 1 mps 745 mmHg 89%
    21:00 +10°C° 0 mm 0 mps 745 mmHg 89%
    22:00 +9°C° 0 mm 0 mps 745 mmHg 89%
    23:00 +9°C° 0 mm 0 mps 744 mmHg 89%
    Show more